TimeEDT,TemperatureF,Dew PointF,Humidity,Sea Level PressureIn,VisibilityMPH,Wind Direction,Wind SpeedMPH,Gust SpeedMPH,PrecipitationIn,Events,Conditions,WindDirDegrees,DateUTC
12:51 AM,45.0,28.0,52,30.03,10.0,NW,8.1,-,N/A,,Overcast,310,2013-05-14 04:51:00
1:51 AM,43.0,28.9,58,30.03,10.0,NW,4.6,-,N/A,,Scattered Clouds,310,2013-05-14 05:51:00
2:51 AM,41.0,28.9,62,30.03,10.0,WNW,3.5,-,N/A,,Clear,290,2013-05-14 06:51:00
3:51 AM,39.0,30.9,73,30.03,10.0,West,4.6,-,N/A,,Clear,260,2013-05-14 07:51:00
4:51 AM,41.0,32.0,70,30.02,10.0,West,4.6,-,N/A,,Overcast,270,2013-05-14 08:51:00
5:51 AM,43.0,30.0,60,30.03,10.0,West,5.8,-,N/A,,Mostly Cloudy,280,2013-05-14 09:51:00
6:51 AM,45.0,30.0,56,30.05,10.0,NW,9.2,-,N/A,,Scattered Clouds,320,2013-05-14 10:51:00
7:51 AM,48.9,30.0,48,30.06,10.0,NNW,11.5,-,N/A,,Scattered Clouds,340,2013-05-14 11:51:00
8:51 AM,52.0,30.9,45,30.05,10.0,NNW,9.2,-,N/A,,Scattered Clouds,340,2013-05-14 12:51:00
9:51 AM,54.0,30.0,40,30.04,10.0,NNE,12.7,17.3,N/A,,Scattered Clouds,20,2013-05-14 13:51:00
10:51 AM,53.1,28.9,40,30.05,10.0,NNE,9.2,-,N/A,,Mostly Cloudy,20,2013-05-14 14:51:00
11:51 AM,55.0,28.9,37,30.05,10.0,Variable,3.5,-,N/A,,Mostly Cloudy,0,2013-05-14 15:51:00
12:51 PM,54.0,28.0,37,30.04,10.0,WNW,9.2,-,0.00,,Mostly Cloudy,290,2013-05-14 16:51:00
1:51 PM,55.4,26.6,33,30.03,10.0,Variable,3.5,-,N/A,,Mostly Cloudy,0,2013-05-14 17:51:00
2:51 PM,57.0,26.1,30,30.03,10.0,WNW,10.4,-,N/A,,Mostly Cloudy,300,2013-05-14 18:51:00
3:51 PM,57.0,26.1,30,30.00,10.0,WNW,11.5,17.3,N/A,,Mostly Cloudy,290,2013-05-14 19:51:00
4:51 PM,57.0,26.1,30,30.00,10.0,NNW,11.5,18.4,N/A,,Mostly Cloudy,330,2013-05-14 20:51:00
5:51 PM,57.0,26.1,30,30.00,10.0,NW,9.2,-,N/A,,Mostly Cloudy,310,2013-05-14 21:51:00
6:51 PM,57.0,26.1,30,30.00,10.0,WNW,9.2,-,N/A,,Mostly Cloudy,290,2013-05-14 22:51:00
7:51 PM,54.0,26.1,34,30.01,10.0,WNW,6.9,-,N/A,,Scattered Clouds,290,2013-05-14 23:51:00
8:51 PM,51.1,27.0,39,30.04,10.0,WNW,5.8,-,N/A,,Scattered Clouds,300,2013-05-15 00:51:00
9:51 PM,48.9,28.9,46,30.06,10.0,West,3.5,-,N/A,,Partly Cloudy,270,2013-05-15 01:51:00
10:51 PM,45.0,30.0,56,30.06,10.0,WSW,4.6,-,N/A,,Partly Cloudy,250,2013-05-15 02:51:00
11:51 PM,43.0,33.1,68,30.07,10.0,West,4.6,-,N/A,,Partly Cloudy,260,2013-05-15 03:51:00